Regional Weather Roundup
Issued by NWS

Home | Current Version | Previous Version | Graphics & Text | Print | Product List | Glossary Off
Versions: 1 2 3 4 5 6 7 8 9 10 11 12 13 14 15 16 17 18 19 20 21 22 23 24 25 26 27 28 29 30 31 32 33 34 35 36 37 38 39 40 41 42 43 44 45 46 47 48 49 50

000
ASUS43 KLSX 200207
RWRMO

WEATHER SUMMARY FOR MISSOURI
NATIONAL WEATHER SERVICE SPRINGFIELD MO
900 PM CDT TUE AUG 19 2014

NOTE: "FAIR" INDICATES FEW OR NO CLOUDS BELOW 12,000 FEET WITH NO
       SIGNIFICANT WEATHER AND/OR OBSTRUCTIONS TO VISIBILITY.
       CURRENT SKY AND/OR WEATHER CONDITIONS ARE NOT AVAILABLE FOR
       CHILLICOTHE AND FARMINGTON.

MOZ001>031-035>038-043-044-053-054-200300-
...NORTHERN AND WESTERN MISSOURI...

CITY           SKY/WX    TMP DP  RH WIND       PRES   REMARKS
KANSAS CTY INT PTCLDY    84  73  69 E7        29.80R HX  90
KANSAS C DTWN  CLEAR     86  73  65 E5        29.78R HX  93
LEE`S SUMMIT   CLEAR     84  74  71 SE5       29.80R HX  91
ST JOSEPH      CLEAR     78  74  87 CALM      29.78R
CHILLICOTHE      N/A     78  75  90 CALM      29.81R
KIRKSVILLE     CLEAR     74  70  87 CALM      29.82R

$$
MOZ066>068-077>081-088>096-101>105-200300-
...SOUTHWEST MISSOURI...

CITY           SKY/WX    TMP DP  RH WIND       PRES   REMARKS
SPRINGFIELD    CLEAR     83  66  56 SW9       29.86R
JOPLIN         CLEAR     83  69  62 S9        29.84R

$$
MOZ032>034-039>042-045>050-055>058-069>072-200300-
...CENTRAL MISSOURI...

CITY           SKY/WX    TMP DP  RH WIND       PRES   REMARKS
COLUMBIA       CLEAR     79  72  79 CALM      29.82R
JEFFERSON CITY CLEAR     77  71  82 CALM      29.80R
ROLLA          CLEAR     75  69  81 CALM      29.83R
SEDALIA        CLEAR     78  72  81 S5        29.82R
WHITEMAN AFB   PTCLDY    78  68  72 S5        29.80S
OSAGE BEACH    CLEAR     79  72  78 CALM      29.82R

$$
MOZ051-052-059>065-200300-
...EAST CENTRAL MISSOURI...

CITY           SKY/WX    TMP DP  RH WIND       PRES   REMARKS
ST LOUIS INTL  CLEAR     83  70  64 CALM      29.82R
SPIRIT OF STL  CLEAR     77  75  93 CALM      29.80R
ST CHARLES     CLEAR     75  73  93 NE3       29.80R

$$
MOZ072>076-082>087-097>100-106>115-200300-
...SOUTH CENTRAL AND SOUTHEAST MISSOURI...

CITY           SKY/WX    TMP DP  RH WIND       PRES   REMARKS
CAPE GIRARDEAU CLEAR     70  68  93 S3        29.83R
FARMINGTON     CLEAR     75  68  78 CALM      29.87R
POPLAR BLUFF   CLEAR     81  74  79 S5        29.83R
WEST PLAINS    CLEAR     82  67  60 S3        29.88R

$$


USA.gov is the U.S. government's official web portal to all federal, state and local government web resources and services.